Regional Weather Roundup
Issued by NWS

Home | Current Version | Previous Version | Text Only | Print | Product List | Glossary On
Versions: 1 2 3 4 5 6 7 8 9 10 11 12 13 14 15 16 17 18 19 20 21 22 23 24 25 26 27 28 29 30 31 32 33 34 35 36 37 38 39 40 41 42 43 44 45 46 47 48 49 50
000
ASPQ40 PGUM 250612
RWRPQ
WEATHER ROUNDUP FOR THE MARIANAS AND MICRONESIA
NATIONAL WEATHER SERVICE TIYAN GU
400 PM CHST SUN JUN 25 2017

GUZ001>004-250700-
MARIANA ISLANDS-

CITY           SKY/WX    TMP DP  RH WIND       PRES   REMARKS
GUAM AIRPORT   MOSUNNY   86  79  79 N8        29.75F HX  99
ANDERSEN AFB   PTSUNNY   82  77  83 NE3       29.77S HX  91
ROTA AIRPORT   PTSUNNY   81  75  83 E17       29.78F
TINIAN AP      PTSUNNY   82  75  78 E8        29.78F
SAIPAN AP      LGT RAIN  81  77  89 NE17G26   29.79S FOG

$$

PMZ161-250700-
REPUBLIC OF PALAU-

CITY           SKY/WX    TMP DP  RH WIND       PRES   REMARKS
KOROR AP       PTSUNNY   86  73  66 SE7       29.73F HX  93
KOROR WSO      PTSUNNY   90  79  70 S8        29.76F HX 105

$$

PMZ171>174-250700-
FEDERATED STATES OF MICRONESIA-

CITY           SKY/WX    TMP DP  RH WIND       PRES   REMARKS
YAP AIRPORT    PTSUNNY   86  79  79 VRB7      29.73F HX  99
CHUUK AP       CLOUDY    84  82  94 NE12      29.75S HX 101
POHNPEI AP     NOT AVBL
POHNPEI WSO    PTSUNNY   86  75  70 NE9       29.78F HX  95
KOSRAE AP      NOT AVBL

$$

PMZ181-250700-
REPUBLIC OF THE MARSHALL ISLANDS-

CITY           SKY/WX    TMP DP  RH WIND       PRES   REMARKS
KWAJALEIN AP   MOSUNNY   77  73  88 E7        29.81S
MAJURO AP      NOT AVBL
MAJURO WSO     PTSUNNY   82  77  83 CALM      29.78R HX  91

$$




USA.gov is the U.S. government's official web portal to all federal, state and local government web resources and services.